Miscellaneous Local Product
Issued by NWS North Platte, NE

Home | Current Version | Previous Version | Graphics & Text | Print | Product List | Glossary On
Versions: 1 2 3 4 5 6 7 8 9 10 11 12 13 14 15 16 17 18 19 20 21 22 23 24 25 26 27 28 29 30 31 32 33 34 35 36 37 38 39 40 41 42 43 44 45 46 47 48 49 50
000
AXUS43 KLBF 262210
MISLBF


WESTERN AND NORTH CENTRAL NEBRASKA HOURLY WEATHER ROUNDUP
NATIONAL WEATHER SERVICE NORTH PLATTE NE
500 PM CDT THU MAY 26 2016

NOTE: "FAIR" INDICATES FEW OR NO CLOUDS BELOW 12,000 FEET WITH NO
SIGNIFICANT WEATHER AND/OR OBSTRUCTIONS TO VISIBILITY.

NOTE: STATIONS NOT REPORTING VARIABLES SUCH AS SKY/WEATHER OR
PRESSURE ARE PROVIDED BY RAWS AND APRS NETWORKS AND ARE NOT UNDER
NATIONAL WEATHER SERVICE QUALITY CONTROL.

...OBSERVATIONS IN AND NEAR THE EASTERN PANHANDLE OF NEBRASKA...

CITY           SKY/WX    TMP DP  RH WIND       PRES   REMARKS
PINE RIDGE     CLOUDY    70  43  37 W9        29.83F
CHADRON        CLOUDY    67  44  43 W6        29.85S
ALLIANCE       CLOUDY    66  42  41 W24G35    29.85S
SIDNEY         CLOUDY    68  41  37 N12       29.86F
CRESCENT LAKE    N/A     72  35  25 W7          N/A
BIG SPRINGS      N/A     74  45  35 N8          N/A
$$

...OBSERVATIONS IN NORTHERN NEBRASKA AND FAR SOUTHERN SOUTH DAKOTA...

CITY           SKY/WX    TMP DP  RH WIND       PRES   REMARKS
WINNER         FAIR      78  51  38 NW7       29.75F
VALENTINE      SUNNY     78  45  30 N8        29.75F
THEDFORD       MOSUNNY   76  46  33 CALM      29.80S
AINSWORTH      SUNNY     74  52  47 SE7       29.78F
O`NEILL        SUNNY     78  49  36 NE5       29.78R
ORD            CLOUDY    78  47  33 E13       29.76R
BROKEN BOW     MOSUNNY   77  48  35 E12       29.79R
BUTTE            N/A     72  56  56 SE9         N/A
CHAMBERS         N/A     80  53  39 S3G12       N/A
EWING            N/A     78  56  46 E3G12       N/A
$$

...OBSERVATIONS IN SOUTHWEST NEBRASKA AND FAR NORTHEAST COLORADO...

CITY           SKY/WX    TMP DP  RH WIND       PRES   REMARKS
WRAY           MOCLDY    77  45  31 NE22      29.75F
IMPERIAL       MOSUNNY   76  42  29 NE23G30   29.75F
OGALLALA       MOSUNNY   75  46  35 NE10G17   29.78F
NORTH PLATTE   SUNNY     78  45  30 NE14G20   29.76F
MCCOOK         PTSUNNY   76  59  55 E18G26    29.73F
LEXINGTON      CLOUDY    73  56  54 NE16G24   29.74F
PAXTON           N/A     76  48  37 NE7         N/A
STAPLETON        N/A     77  49  36 NE3G12      N/A
GOTHENBURG       N/A     77  42  28 NE7         N/A
CALLAWAY         N/A     76  50  39 SE12        N/A
$$

...OBSERVATIONS IN CENTRAL LINCOLN COUNTY AREA...

CITY           SKY/WX    TMP DP  RH WIND       PRES   REMARKS
N.P. AIRPORT   SUNNY     78  45  30 NE14G20   29.76F
N.P. DOWNTOWN    N/A     77  47  34 E9G17       N/A
N.P. SOUTHEAST   N/A     79  45  29 MISG        N/A
N.P. HILLCREST   N/A     77  44  30 E13         N/A
$$

...SOME OBSERVATIONS FROM AROUND THE REGION...

CITY           SKY/WX    TMP DP  RH WIND       PRES   REMARKS
DENVER         TSTM      46  41  82 E9        29.91R
LARAMIE        CLOUDY    43  37  79 E14       29.99R
CHEYENNE       LGT RAIN  47  43  86 NW5       29.99F FOG
SCOTTSBLUFF    CLOUDY    63  40  42 W17G29    29.89S
RAPID CITY     LGT RAIN  59  50  72 E8        29.85R
BISMARCK       PTSUNNY   71  48  43 NW13G23   29.76F
PIERRE         MOSUNNY   74  50  42 SW8       29.75F
SIOUX FALLS    CLOUDY    74  56  53 E8        29.79F
OMAHA          TSTM      70  64  81 SE6G24    29.82R
GRAND ISLAND   CLOUDY    74  56  53 E10       29.78R
KANSAS CITY    TSTM      62  60  93 NE22G39   29.84R VSB 1
WICHITA        CLOUDY    82  73  74 SE13      29.68F
OKLAHOMA CITY  MOSUNNY   85  65  51 S23G36    29.73F
DALLAS         PTSUNNY   78  66  66 SE17      29.81S
AMARILLO       SUNNY     88  32  13 SW26G36   29.73F
DODGE CITY     MOSUNNY   76  65  68 E20       29.66F
HAYS           CLOUDY    57  52  82 SE12G18   29.70F
$$




USA.gov is the U.S. government's official web portal to all federal, state and local government web resources and services.